Location: Fort Frances
(48.6170°N, 93.4170°W)
Time: 09:25:50
(UTC-06:00)

Daily predictions for brighter satellites

Satellite Brightness Start Highest point End
(mag) Time Altitude Azimuth Time Altitude Azimuth Time Altitude Azimuth
ASTEX 1 3.8 16:47:05 10° N 16:52:06 72° W 16:57:03 10° SSW
Cosmos 1295 Rocket 4.5 16:46:12 10° N 16:52:22 86° E 16:58:27 10° S
CSL-04 Rocket 3.9 16:47:17 10° SSE 16:52:47 86° WSW 16:58:23 10° NNW
ATLAS CENTAUR R/B 3.8 16:54:19 10° NNW 16:55:47 11° NNW 16:57:14 10° N
Cosmos 2218 Rocket 4.0 16:49:46 10° N 16:56:02 64° ENE 17:02:10 10° SSE
Cosmos 1484 Rocket 4.3 16:54:47 10° E 16:56:51 15° ENE 16:58:56 10° NNE
Cosmos 1975 3.5 16:53:34 10° N 16:57:19 34° ENE 17:01:01 10° SE
USA 234 4.2 16:54:12 10° ENE 17:00:03 34° SE 17:05:51 10° SSW
Cosmos 1238 Rocket 3.0 16:57:43 10° SSE 17:00:28 32° E 17:03:28 10° NNE
PAYLOAD A 4.0 16:56:13 10° SSE 17:01:04 65° ENE 17:06:08 10° N
MTI 3.9 16:57:51 10° NNE 17:01:11 85° WNW 17:04:28 10° SSW
CSL-04 Debris 4.3 16:55:58 10° SSE 17:01:22 85° WSW 17:06:49 10° NNW
EO 1 Del DPAF 3.6 17:00:50 10° N 17:04:43 71° WNW 17:08:34 10° SSW
Cosmos 2181 Rocket 4.2 16:58:31 10° S 17:04:55 90° W 17:11:25 10° N
Cosmos 1544 Rocket 3.6 17:00:50 10° N 17:05:19 79° E 17:09:48 10° SSE
Cosmos 1844 Rocket 2.8 17:00:51 10° SSW 17:06:28 85° WNW 17:12:09 10° NNE
CZ-4 R/B 1.5 17:04:58 10° SSE 17:09:02 59° ENE 17:13:05 10° N
Meteor 1-12 Rocket 4.3 17:03:34 10° N 17:09:21 66° ENE 17:15:13 10° SSE
Abrixas 3.6 17:07:30 10° W 17:10:20 44° SSW 17:13:10 10° SE
NOSS 3-4 (A) 4.1 17:03:47 10° NW 17:10:20 46° NE 17:17:18 10° ESE
NOSS 3-4 (C) 4.1 17:03:53 10° NW 17:10:26 46° NE 17:17:23 10° ESE
COSMO-SKYMED 1 4.3 17:09:50 10° NE 17:12:12 15° E 17:14:36 10° ESE
MSX 4.2 17:07:01 10° SE 17:12:24 43° ENE 17:17:47 10° N
MOS 1 4.3 17:06:55 10° SSE 17:12:29 63° ENE 17:18:05 10° N
Cosmos 1975 Rocket 3.5 17:09:55 10° SSW 17:14:12 64° WNW 17:18:32 10° N
CORIOLIS 4.2 17:11:12 10° SE 17:16:28 56° ENE 17:21:43 10° N
CZ-2C R/B 2.5 17:12:22 10° SSE 17:17:22 63° ENE 17:22:29 10° N
CZ-3B DEB 2.5 17:13:49 10° SSW 17:17:31 58° SE 17:25:57 12° ENE
CZ-2C R/B 3.7 17:13:15 10° NNE 17:17:44 90° E 17:22:15 10° SSW
Cosmos 1812 2.8 17:14:18 10° S 17:18:05 56° E 17:21:53 10° NNE
Timation 2 Rocket 4.2 17:13:41 10° NNW 17:20:30 68° ENE 17:27:22 10° SE
NOSS 3-3 (A) 4.2 17:14:31 10° SSW 17:20:36 58° ESE 17:26:55 11° NE
NOSS 3-3 (C) 4.2 17:14:37 10° SSW 17:20:42 58° ESE 17:27:00 11° NE
ERBS 3.7 17:21:46 10° NW 17:24:35 23° NNE 17:26:19 16° NE
ATLAS 2AS CENTAUR R/B 4.2 17:17:32 10° NW 17:25:13 48° WSW 17:32:25 10° S
Cosmos 921 Rocket 4.2 17:23:03 10° SSE 17:26:29 24° E 17:28:57 15° NE
SJ-12 3.9 17:25:33 10° SSE 17:29:39 83° ENE 17:33:49 10° NNW
Cosmos 1536 Rocket 3.6 17:26:28 10° S 17:30:53 65° E 17:35:21 10° NNE
Cosmos 1844 4.0 17:30:57 10° SW 17:36:29 69° WNW 17:42:05 10° NNE
YAOGAN 1 2.5 17:36:09 10° SSE 17:40:29 89° ENE 17:44:52 10° NNW
COSMOS 2487 2.8 17:37:23 10° NNW 17:40:59 71° WSW 17:44:33 10° SSE
Cosmos 2297 4.1 17:35:43 10° S 17:41:02 44° ESE 17:45:18 16° NE
SPOT 3 Rocket 3.7 17:39:47 10° SSE 17:44:58 78° WSW 17:50:10 10° NNW
Okean 1 3.3 17:43:17 10° S 17:47:21 87° E 17:51:27 10° N
SL-8 R/B 3.8 17:44:20 10° WSW 17:49:05 68° SSE 17:52:00 23° E
Nadezhda 3 Rocket 4.1 17:44:13 10° SSE 17:50:16 56° E 17:56:25 10° NNE
Cosmos 2278 Rocket 2.2 17:44:46 10° SSW 17:50:26 84° WNW 17:55:53 11° NNE
Meteor 1-18 Rocket 4.4 17:45:51 10° SSW 17:51:33 77° WNW 17:57:23 10° N
Cosmos 1666 3.5 17:48:20 10° N 17:51:48 30° ENE 17:55:15 10° SE
Cosmos 1346 Rocket 2.6 17:49:12 10° S 17:53:04 69° E 17:56:27 13° NNE
BREEZE-M R/B 4.4 17:42:54 10° SW 17:53:45 66° SSE 17:57:06 24° E
Cosmos 1455 Rocket 4.4 17:49:56 10° NNW 17:54:06 42° W 17:58:17 10° SSW
SMAP 3.6 17:50:18 10° S 17:54:55 63° WSW 17:59:33 10° NNW
SL-24 DEB 4.2 17:50:58 10° N 17:55:43 72° E 18:00:24 10° S
GRACE-2 4.3 17:53:50 10° SSE 17:56:15 41° ESE 17:56:15 41° ESE
GRACE-1 4.2 17:54:15 10° SSE 17:56:45 43° E 17:56:45 43° E
ISS -2.8 17:56:36 10° W 17:59:50 48° N 18:00:42 37° NE
SKYMED 2 4.0 17:58:26 23° NE 18:00:41 41° E 18:04:47 10° SSE
EP 1 4.3 17:58:27 10° SSW 18:00:58 55° SE 18:01:05 54° ESE
GEOS 3 Rocket 3.7 18:00:07 18° ESE 18:03:45 51° NE 18:08:43 10° NNW
Cosmos 1833 Rocket 2.7 17:59:21 10° NNW 18:05:03 82° WSW 18:10:40 10° SSE
Cosmos 1190 Rocket 4.1 18:03:26 10° NNW 18:08:34 51° ENE 18:13:38 10° SE
Timation 1 Rocket 4.4 18:03:23 10° SSW 18:09:14 60° ESE 18:12:51 24° NE
Intercosmos 25 2.7 18:06:24 10° N 18:09:40 88° E 18:12:57 10° S
Cosmos 2082 Rocket 2.7 18:06:39 10° NNW 18:12:15 64° WSW 18:17:52 10° SSE
NOSS 2-1 (D) 3.7 18:08:41 10° SSW 18:12:24 47° ESE 18:13:17 40° E
NOSS 2-1 (C) 3.7 18:09:22 10° SSW 18:13:06 46° ESE 18:13:57 40° E
Cosmos 1743 2.7 18:09:37 10° N 18:13:31 86° W 18:17:23 10° S
Tiangong 1 2.6 18:11:08 10° SW 18:13:40 24° S 18:14:01 23° SSE
ASTRO F (AKARI) 4.1 18:12:49 42° NNE 18:13:46 89° E 18:16:56 10° SSW
IDEFIX/ARIANE 42P 3.7 18:09:24 10° S 18:14:23 46° W 18:19:23 10° NNW
Thor Agena Rocket 3.9 18:09:22 10° N 18:14:32 67° WNW 18:19:45 10° SSW
BREEZE-M DEB (TANK) 3.4 18:09:36 10° W 18:16:42 79° N 18:17:36 48° E
Meteor 1-28 Rocket 4.5 18:21:17 26° SE 18:21:17 26° SE 18:23:21 10° SSE
TIMED 4.5 18:16:44 10° SSW 18:21:06 85° WNW 18:23:20 29° NNE
Okean 1-7 Rocket 3.5 18:17:13 10° S 18:21:43 81° E 18:24:49 20° NNE
Cosmos 1726 Rocket 3.7 18:18:22 10° N 18:22:44 50° ENE 18:27:04 10° SSE
Resurs 01 Rocket 3.9 18:30:47 11° N 18:30:47 11° N 18:31:03 10° N
Cosmos 1484 Rocket 3.3 18:27:15 10° S 18:30:55 55° W 18:34:36 10° NNW
Meteor 1-19 Rocket 4.2 18:25:09 10° S 18:30:59 84° E 18:36:54 10° NNE
DMSP B5D1-3 4.5 18:28:53 30° NNE 18:31:22 62° ESE 18:36:26 10° S
NOSS 2-1 (E) 3.4 18:27:50 10° SSW 18:31:44 63° SE 18:32:06 60° E
Cosmos 1934 Rocket 3.9 18:25:31 10° N 18:31:44 76° E 18:38:02 10° SSE
Meteor 2-8 Rocket 4.4 18:33:14 10° S 18:39:12 61° E 18:43:06 23° NNE
Meteor 1-15 Rocket 4.2 18:35:51 10° N 18:41:48 78° ENE 18:47:37 10° SSE
Cosmos 1606 Rocket 3.5 18:37:25 10° N 18:41:56 90° E 18:46:25 10° S
USA 234 3.2 18:40:41 38° NE 18:43:32 87° NNW 18:50:06 10° WSW
COSMO-SKYMED 1 2.8 18:47:03 34° N 18:48:50 67° WNW 18:53:08 10° SSW
Meteor 2-9 Rocket 4.2 18:44:23 10° NNW 18:49:50 76° W 18:55:09 10° S
Cosmos 2369 Rocket 4.2 18:49:56 10° SSE 18:50:47 14° SSE 18:50:47 14° SSE
Meteor 1-23 Rocket 4.1 18:49:10 10° S 18:54:51 84° E 18:57:13 37° NNE
Meteor 2-4 Rocket 3.6 18:53:27 10° SSW 18:58:48 80° WNW 19:01:14 34° N
Cosmos 407 Rocket 3.5 18:54:40 10° NNW 18:59:49 77° WSW 19:02:22 30° S
Spot 2 Rocket 4.3 19:02:38 37° N 19:02:38 37° N 19:05:46 10° N
NOSS 3-4 (A) 4.3 18:54:44 10° NW 19:01:34 58° WSW 19:08:48 10° SSE
NOSS 3-4 (C) 4.3 18:54:50 10° NW 19:01:40 59° WSW 19:08:54 10° SSE
BREEZE-M DEB (TANK) 2.9 18:57:58 10° WNW 19:03:26 75° N 19:03:26 75° N
Cosmos 2056 Rocket 3.4 18:58:39 10° SSW 19:04:01 88° ESE 19:04:14 83° NE
Cosmos 1025 Rocket 3.6 19:00:09 10° SSW 19:04:28 57° WNW 19:05:09 51° NW
Cosmos 921 Rocket 4.3 19:00:32 10° SW 19:04:34 39° WNW 19:05:48 32° NNW
Cosmos 1153 Rocket 4.3 19:00:37 10° N 19:06:43 69° ENE 19:06:43 69° ENE
Cosmos 676 Rocket 3.9 19:04:52 10° NNW 19:09:51 80° NW 19:09:51 80° NW
BREEZE M DEB (TANK) 4.1 19:09:44 10° W 19:13:45 57° SSW 19:18:05 31° SE
Cosmos 1605 Rocket 4.1 19:09:04 10° NNW 19:15:23 75° W 19:21:33 10° S
Cosmos 1624 Rocket 4.1 19:11:53 10° SSW 19:17:04 69° WNW 19:17:10 69° NW
Cosmos 2278 Rocket 4.3 19:31:17 10° W 19:35:25 20° NW 19:37:44 16° N
ISS 0.2 19:33:19 10° WNW 19:33:23 10° WNW 19:33:23 10° WNW
CZ-3B DEB 3.6 19:45:59 10° W 19:52:10 62° N 19:53:54 56° NE
USA 234 4.3 20:28:02 39° NW 20:28:02 39° NW 20:32:27 10° W
